Regional Weather Roundup
Issued by NWS

Current Version | Previous Version | Text Only | Print | Product List | Glossary On
Versions: 1 2 3 4 5 6 7 8 9 10 11 12 13 14 15 16 17 18 19 20 21 22 23 24 25 26 27 28 29 30 31 32 33 34 35 36 37 38 39 40 41 42 43 44 45 46 47 48 49 50
000
ASUS44 KJAN 270010
RWRMS

MISSISSIPPI HOURLY WEATHER ROUNDUP
NATIONAL WEATHER SERVICE JACKSON MS
600 PM CST FRI DEC 26 2014

NOTE: "FAIR: INDICATES FEW OR NO CLOUDS BELOW 12,000 FEET WITH NO
SIGNIFICANT WEATHER AND/OR OBSTRUCTIONS TO VISIBILITY.

MSZ001>002-007>008-010>013-018>021-025>028-034>036-270100-
NORTHWEST MISSISSIPPI

CITY           SKY/WX    TMP DP  RH WIND       PRES   REMARKS
CLARKSDALE     CLOUDY    50  46  87 SE9       30.15S
CLEVELAND      CLOUDY    54  50  87 SE6       30.13R
GREENWOOD      NOT AVBL
GREENVILLE     CLOUDY    54  50  86 SE8       30.13R
6HR MIN TEMP:  53; 6HR MAX TEMP:  57; 6HR PCP: TRACE;

GRENADA        FAIR      48  45  87 CALM      30.16S
OLIVE BRANCH   PTCLDY    46  45  93 S10       30.15R
OXFORD         FAIR      48  41  76 SE6       30.18R
TUNICA         PTCLDY    50  45  81 SE8       30.15R
$$

MSZ003>006-009-014>017-022>024-029>033-037>039-270100-
NORTHEAST MISSISSIPPI

CITY           SKY/WX    TMP DP  RH WIND       PRES   REMARKS
COLUMBUS AFB   MOCLDY    51  44  77 SE6       30.22S
6HR MIN TEMP:  51; 6HR MAX TEMP:  57;

CORINTH        FAIR      46  41  81 E3        30.18F
GOLDN TRIANGLE MOCLDY    54  43  66 SE9       30.21S
STARKVILLE     FAIR      52  45  76 SE5       30.21R
TUPELO         MOCLDY    50  40  68 MISG      30.19F
6HR MIN TEMP:  48; 6HR MAX TEMP:  52;

$$

MSZ040-058-270100-
CENTRAL MISSISSIPPI

CITY           SKY/WX    TMP DP  RH WIND       PRES   REMARKS
JACKSON INTL   CLOUDY    58  49  72 SE12      30.19R
6HR MIN TEMP:  56; 6HR MAX TEMP:  62; 6HR PCP: TRACE;

JACKSON HAWKNS LGT RAIN  57  49  74 SE8       30.18R
6HR MIN TEMP:  55; 6HR MAX TEMP:  61; 6HR PCP: TRACE;

MERIDIAN KEY   PTCLDY    52  44  74 CALM      30.22R
6HR MIN TEMP:  52; 6HR MAX TEMP:  59; 6HR PCP: TRACE;

MERIDIAN NAS   PTCLDY    50  44  80 E6        30.23S
6HR MIN TEMP:  50; 6HR MAX TEMP:  59; 6HR PCP: TRACE;

RAYMOND        CLOUDY    57  54  88 SE8       30.18R HAZE
VICKSBURG      LGT RAIN  57  52  83 SE9       30.14S
6HR MIN TEMP:  56; 6HR MAX TEMP:  61; 6HR PCP: TRACE;

$$

MSZ059>079-270100-
SOUTH MISSISSIPPI

CITY           SKY/WX    TMP DP  RH WIND       PRES   REMARKS
HATTIESBURG    CLOUDY    60  51  72 SE5       30.21R
6HR MIN TEMP:  58; 6HR MAX TEMP:  65;

MCCOMB         CLOUDY    60  53  77 E5        30.15S
6HR MIN TEMP:  60; 6HR MAX TEMP:  62; 6HR PCP: TRACE;

NATCHEZ        CLOUDY    57  54  88 SE13      30.13S
6HR MIN TEMP:  57; 6HR MAX TEMP:  61;

PINE BELT      CLOUDY    57  48  72 E5        30.21R
6HR MIN TEMP:  55; 6HR MAX TEMP:  63;

$$

MSZ080>082-270100-
COASTAL MISSISSIPPI

CITY           SKY/WX    TMP DP  RH WIND       PRES   REMARKS
BAY ST LOUIS   CLOUDY    61  50  67 E12G18    30.17
BILOXI         CLOUDY    62  54  76 SE10      30.19S
6HR MIN TEMP:  62; 6HR MAX TEMP:  68;

PASCAGOULA     CLOUDY    61  53  75 E6        30.21R
6HR MIN TEMP:  61; 6HR MAX TEMP:  68;

GULFPORT       CLOUDY    61  54  77 E16       30.19R
6HR MIN TEMP:  61; 6HR MAX TEMP:  67;

$$


USA.gov is the U.S. government's official web portal to all federal, state and local government web resources and services.